Data No.,UTC Date,UTC Time,Latitude,Longitude,Course(deg),Temp(degC),Sal(psu)
39,2017/9/20,8:54:00,42-36.26N,141-36.84E,175,18.2952,32.3334
40,2017/9/20,8:55:00,42-35.98N,141-36.87E,175,18.4197,32.6408
41,2017/9/20,8:56:00,42-35.70N,141-36.91E,174,18.5403,31.8616
42,2017/9/20,8:57:00,42-35.39N,141-36.95E,174,18.5548,31.5431
43,2017/9/20,8:58:00,42-35.08N,141-36.98E,174,18.4391,31.3428
44,2017/9/20,8:59:00,42-34.77N,141-37.02E,175,18.3246,31.3343
45,2017/9/20,9:00:00,42-34.45N,141-37.05E,175,18.3532,32.5512
46,2017/9/20,9:01:00,42-34.13N,141-37.07E,177,18.423,32.8978
47,2017/9/20,9:02:00,42-33.80N,141-37.08E,179,18.5497,33.0633
48,2017/9/20,9:03:00,42-33.48N,141-37.08E,179,18.671,33.1528
49,2017/9/20,9:04:00,42-33.15N,141-37.08E,179,18.5729,33.2647
50,2017/9/20,9:05:00,42-32.81N,141-37.09E,179,18.4391,33.3769
51,2017/9/20,9:06:00,42-32.47N,141-37.09E,180,18.2986,33.4487
52,2017/9/20,9:07:00,42-32.13N,141-37.09E,179,18.2659,33.484
53,2017/9/20,9:08:00,42-31.78N,141-37.09E,179,18.132,33.5147
54,2017/9/20,9:09:00,42-31.44N,141-37.09E,179,18.1007,33.4801
55,2017/9/20,9:10:00,42-31.09N,141-37.09E,180,18.1186,33.4569
56,2017/9/20,9:11:00,42-30.73N,141-37.09E,180,18.1494,33.4581
57,2017/9/20,9:12:00,42-30.38N,141-37.09E,180,18.1697,33.4641
58,2017/9/20,9:13:00,42-30.02N,141-37.09E,180,18.195,33.4661
59,2017/9/20,9:14:00,42-29.66N,141-37.08E,180,18.2431,33.4724
60,2017/9/20,9:15:00,42-29.29N,141-37.08E,180,18.2377,33.4693
61,2017/9/20,9:16:00,42-28.93N,141-37.07E,180,18.2241,33.4664
62,2017/9/20,9:17:00,42-28.55N,141-37.06E,180,18.1878,33.4597
63,2017/9/20,9:18:00,42-28.17N,141-37.06E,180,18.1443,33.4494
64,2017/9/20,9:19:00,42-27.80N,141-37.06E,180,18.1408,33.4113
65,2017/9/20,9:20:00,42-27.41N,141-37.05E,180,18.0629,33.4112
66,2017/9/20,9:21:00,42-27.02N,141-37.04E,180,18.0525,33.4255
67,2017/9/20,9:22:00,42-26.64N,141-37.04E,180,18.0478,33.4295
68,2017/9/20,9:23:00,42-26.25N,141-37.03E,180,18.0387,33.418
69,2017/9/20,9:24:00,42-25.87N,141-37.02E,180,18.0322,33.4183
70,2017/9/20,9:25:00,42-25.47N,141-37.02E,180,18.1108,33.4225
71,2017/9/20,9:26:00,42-25.08N,141-37.01E,180,18.1069,33.4395
72,2017/9/20,9:27:00,42-24.70N,141-37.00E,180,18.2559,33.4968
73,2017/9/20,9:28:00,42-24.31N,141-36.99E,181,18.354,33.5307
74,2017/9/20,9:29:00,42-23.92N,141-36.98E,180,18.6296,33.5464
75,2017/9/20,9:30:00,42-23.54N,141-36.97E,180,18.7798,33.5577
76,2017/9/20,9:31:00,42-23.15N,141-36.96E,181,18.8366,33.5841
77,2017/9/20,9:32:00,42-22.76N,141-36.94E,181,18.9147,33.609
78,2017/9/20,9:33:00,42-22.37N,141-36.93E,182,18.9051,33.6241
79,2017/9/20,9:34:00,42-21.97N,141-36.91E,182,18.917,33.6346
80,2017/9/20,9:35:00,42-21.58N,141-36.89E,182,18.768,33.632
81,2017/9/20,9:36:00,42-21.19N,141-36.87E,182,18.5145,33.6159
82,2017/9/20,9:37:00,42-20.79N,141-36.85E,182,18.2333,33.581
83,2017/9/20,9:38:00,42-20.40N,141-36.83E,182,18.1203,33.5565
84,2017/9/20,9:39:00,42-19.99N,141-36.81E,182,18.0099,33.5478
85,2017/9/20,9:40:00,42-19.61N,141-36.78E,182,17.953,33.5569
86,2017/9/20,9:41:00,42-19.22N,141-36.76E,182,17.9741,33.5613
87,2017/9/20,9:42:00,42-18.82N,141-36.73E,182,18.0379,33.5613
88,2017/9/20,9:43:00,42-18.42N,141-36.71E,182,18.0656,33.5582
89,2017/9/20,9:44:00,42-18.03N,141-36.69E,182,18.1187,33.5569
90,2017/9/20,9:45:00,42-17.63N,141-36.66E,182,18.1958,33.5571
91,2017/9/20,9:46:00,42-17.24N,141-36.64E,182,18.2993,33.5554
92,2017/9/20,9:47:00,42-16.85N,141-36.61E,182,18.4373,33.5478
93,2017/9/20,9:48:00,42-16.45N,141-36.59E,182,18.5557,33.5395
94,2017/9/20,9:49:00,42-16.06N,141-36.57E,182,18.5894,33.5425
95,2017/9/20,9:50:00,42-15.68N,141-36.55E,182,18.4962,33.543
96,2017/9/20,9:51:00,42-15.28N,141-36.52E,182,18.3599,33.5311
97,2017/9/20,9:52:00,42-14.88N,141-36.49E,183,18.3675,33.528
98,2017/9/20,9:53:00,42-14.50N,141-36.47E,182,18.2971,33.5332
99,2017/9/20,9:54:00,42-14.10N,141-36.44E,182,18.1608,33.5376
100,2017/9/20,9:55:00,42-13.71N,141-36.42E,183,17.8936,33.547
101,2017/9/20,9:56:00,42-13.31N,141-36.38E,183,17.8536,33.5494
102,2017/9/20,9:57:00,42-12.92N,141-36.35E,183,17.8491,33.5379
103,2017/9/20,9:58:00,42-12.53N,141-36.33E,183,17.816,33.5352
104,2017/9/20,9:59:00,42-12.13N,141-36.30E,183,17.7995,33.5331
105,2017/9/20,10:00:00,42-11.73N,141-36.27E,183,17.8153,33.5464
106,2017/9/20,10:01:00,42-11.33N,141-36.24E,183,17.8036,33.5533
107,2017/9/20,10:02:00,42-10.95N,141-36.21E,183,17.7947,33.5578
108,2017/9/20,10:03:00,42-10.56N,141-36.18E,183,17.7782,33.5586
109,2017/9/20,10:04:00,42-10.16N,141-36.15E,183,17.7452,33.5615
110,2017/9/20,10:05:00,42-09.76N,141-36.11E,183,17.7479,33.5641
111,2017/9/20,10:06:00,42-09.37N,141-36.08E,183,17.7372,33.5716
112,2017/9/20,10:07:00,42-08.97N,141-36.05E,183,17.7117,33.576
113,2017/9/20,10:08:00,42-08.57N,141-36.02E,183,17.6638,33.5796
114,2017/9/20,10:09:00,42-08.18N,141-35.98E,183,17.6391,33.5776
115,2017/9/20,10:10:00,42-07.78N,141-35.95E,183,17.6263,33.5756
116,2017/9/20,10:11:00,42-07.38N,141-35.91E,183,17.5982,33.5751
117,2017/9/20,10:12:00,42-06.98N,141-35.88E,183,17.5579,33.5774
118,2017/9/20,10:13:00,42-06.58N,141-35.85E,183,17.5388,33.5815
119,2017/9/20,10:14:00,42-06.19N,141-35.81E,183,17.5259,33.5813
120,2017/9/20,10:15:00,42-05.80N,141-35.78E,183,17.4846,33.5838
121,2017/9/20,10:16:00,42-05.40N,141-35.74E,184,17.485,33.5823
122,2017/9/20,10:17:00,42-05.01N,141-35.71E,183,17.4416,33.5785
123,2017/9/20,10:18:00,42-04.60N,141-35.67E,183,17.387,33.5833
124,2017/9/20,10:19:00,42-04.21N,141-35.64E,183,17.45,33.5815
125,2017/9/20,10:20:00,42-03.81N,141-35.60E,184,17.4202,33.5826
126,2017/9/20,10:21:00,42-03.41N,141-35.56E,183,17.373,33.5825
127,2017/9/20,10:22:00,42-03.01N,141-35.53E,183,17.3695,33.5737
128,2017/9/20,10:23:00,42-02.61N,141-35.49E,183,17.374,33.5685
129,2017/9/20,10:24:00,42-02.21N,141-35.45E,183,17.354,33.5668
130,2017/9/20,10:25:00,42-01.81N,141-35.42E,183,17.3394,33.5546
131,2017/9/20,10:26:00,42-01.42N,141-35.38E,184,17.3799,33.5485
132,2017/9/20,10:27:00,42-01.02N,141-35.34E,184,17.4172,33.5501
133,2017/9/20,10:28:00,42-00.63N,141-35.31E,183,17.4357,33.5476
134,2017/9/20,10:29:00,42-00.23N,141-35.27E,184,17.4729,33.54
135,2017/9/20,10:30:00,41-59.83N,141-35.24E,183,17.494,33.537
136,2017/9/20,10:31:00,41-59.44N,141-35.20E,183,17.4576,33.5342
137,2017/9/20,10:32:00,41-59.04N,141-35.17E,183,17.4099,33.5288
138,2017/9/20,10:33:00,41-58.65N,141-35.13E,184,17.3893,33.5215
139,2017/9/20,10:34:00,41-58.26N,141-35.10E,183,17.2034,33.5269
140,2017/9/20,10:35:00,41-57.85N,141-35.07E,182,16.8797,33.5534
141,2017/9/20,10:36:00,41-57.46N,141-35.04E,183,16.7526,33.6618
142,2017/9/20,10:37:00,41-57.06N,141-35.01E,183,16.666,33.6911
143,2017/9/20,10:38:00,41-56.67N,141-34.98E,183,16.6515,33.7223
144,2017/9/20,10:39:00,41-56.27N,141-34.95E,183,16.6512,33.7503
145,2017/9/20,10:40:00,41-55.87N,141-34.92E,182,16.6758,33.7518
146,2017/9/20,10:41:00,41-55.46N,141-34.90E,183,16.6806,33.7583
147,2017/9/20,10:42:00,41-55.06N,141-34.87E,182,16.6735,33.7637
148,2017/9/20,10:43:00,41-54.66N,141-34.84E,183,16.6829,33.7691
149,2017/9/20,10:44:00,41-54.26N,141-34.81E,183,16.7114,33.7646
150,2017/9/20,10:45:00,41-53.87N,141-34.78E,183,16.7726,33.7743
151,2017/9/20,10:46:00,41-53.46N,141-34.75E,183,16.8025,33.7875
152,2017/9/20,10:47:00,41-53.07N,141-34.72E,182,16.7744,33.7998
153,2017/9/20,10:48:00,41-52.67N,141-34.70E,183,16.7461,33.7986
154,2017/9/20,10:49:00,41-52.26N,141-34.66E,183,16.7694,33.7771
155,2017/9/20,10:50:00,41-51.86N,141-34.63E,183,16.776,33.7383
156,2017/9/20,10:51:00,41-51.46N,141-34.60E,182,16.8377,33.713
157,2017/9/20,10:52:00,41-51.06N,141-34.57E,183,16.8993,33.6827
158,2017/9/20,10:53:00,41-50.66N,141-34.55E,182,16.981,33.6534
159,2017/9/20,10:54:00,41-50.26N,141-34.52E,183,17.0277,33.6375
160,2017/9/20,10:55:00,41-49.87N,141-34.49E,182,17.1018,33.6084
161,2017/9/20,10:56:00,41-49.48N,141-34.47E,182,17.3246,33.5555
162,2017/9/20,10:57:00,41-49.08N,141-34.45E,183,17.6333,33.4586
163,2017/9/20,10:58:00,41-48.68N,141-34.42E,182,17.716,33.4134
164,2017/9/20,10:59:00,41-48.29N,141-34.40E,182,17.7059,33.4088
165,2017/9/20,11:00:00,41-47.88N,141-34.37E,182,17.6346,33.3825
166,2017/9/20,11:01:00,41-47.48N,141-34.35E,183,17.5946,33.3125
167,2017/9/20,11:02:00,41-47.09N,141-34.32E,182,17.5677,33.2601
168,2017/9/20,11:03:00,41-46.69N,141-34.30E,182,17.5557,33.2384
169,2017/9/20,11:04:00,41-46.29N,141-34.27E,182,17.5015,33.2257
170,2017/9/20,11:05:00,41-45.90N,141-34.24E,182,17.3991,33.2125
171,2017/9/20,11:06:00,41-45.50N,141-34.22E,182,17.0465,33.1854
172,2017/9/20,11:07:00,41-45.10N,141-34.19E,183,17.0348,33.1601
173,2017/9/20,11:08:00,41-44.71N,141-34.17E,181,17.8141,33.1722
174,2017/9/20,11:09:00,41-44.31N,141-34.15E,182,18.3497,33.2749
175,2017/9/20,11:10:00,41-43.91N,141-34.13E,181,18.525,33.6973
176,2017/9/20,11:11:00,41-43.53N,141-34.12E,181,19.2838,33.7653
177,2017/9/20,11:12:00,41-43.12N,141-34.11E,180,19.7012,33.8651
178,2017/9/20,11:13:00,41-42.74N,141-34.11E,180,19.7968,33.935
179,2017/9/20,11:14:00,41-42.34N,141-34.10E,180,19.9161,33.9477
180,2017/9/20,11:15:00,41-41.94N,141-34.10E,180,19.9161,33.9234
181,2017/9/20,11:16:00,41-41.55N,141-34.09E,180,19.9219,33.913
182,2017/9/20,11:17:00,41-41.15N,141-34.10E,179,19.8451,33.9144
183,2017/9/20,11:18:00,41-40.75N,141-34.10E,179,19.7105,33.8987
184,2017/9/20,11:19:00,41-40.36N,141-34.10E,179,19.8375,33.9081
185,2017/9/20,11:20:00,41-39.95N,141-34.11E,178,19.8996,33.9132
186,2017/9/20,11:21:00,41-39.55N,141-34.12E,179,19.441,33.8493
187,2017/9/20,11:22:00,41-39.16N,141-34.12E,179,19.3489,33.9305
188,2017/9/20,11:23:00,41-38.76N,141-34.12E,178,19.4246,33.9656
189,2017/9/20,11:24:00,41-38.37N,141-34.14E,178,19.4605,33.9748
190,2017/9/20,11:25:00,41-37.97N,141-34.15E,178,19.5242,33.9736
191,2017/9/20,11:26:00,41-37.56N,141-34.18E,177,19.5925,33.9655
192,2017/9/20,11:27:00,41-37.16N,141-34.21E,176,19.5136,33.9603
193,2017/9/20,11:28:00,41-36.75N,141-34.24E,176,19.4889,33.9551
194,2017/9/20,11:29:00,41-36.33N,141-34.28E,176,19.5219,33.9699
195,2017/9/20,11:30:00,41-35.93N,141-34.32E,175,19.4824,33.9715
196,2017/9/20,11:31:00,41-35.51N,141-34.36E,174,19.3604,33.9719
197,2017/9/20,11:32:00,41-35.09N,141-34.42E,174,19.3939,33.9821
198,2017/9/20,11:33:00,41-34.68N,141-34.47E,174,19.4127,33.9919
199,2017/9/20,11:34:00,41-34.26N,141-34.52E,174,19.4963,33.9879
200,2017/9/20,11:35:00,41-33.84N,141-34.57E,175,19.4922,33.9834
201,2017/9/20,11:36:00,41-33.42N,141-34.62E,174,19.575,33.9766
202,2017/9/20,11:37:00,41-33.00N,141-34.67E,175,19.539,33.9776
203,2017/9/20,11:38:00,41-32.58N,141-34.71E,176,19.4342,33.9701
204,2017/9/20,11:39:00,41-32.16N,141-34.75E,175,19.4578,33.9743
205,2017/9/20,11:40:00,41-31.73N,141-34.79E,176,19.4887,33.9852
206,2017/9/20,11:41:00,41-31.31N,141-34.82E,177,19.5473,33.9825
207,2017/9/20,11:42:00,41-30.89N,141-34.85E,177,19.4385,33.9787
208,2017/9/20,11:43:00,41-30.46N,141-34.88E,177,19.4201,33.9816
209,2017/9/20,11:44:00,41-30.04N,141-34.90E,177,19.4083,33.9919
210,2017/9/20,11:45:00,41-29.62N,141-34.92E,178,19.3889,33.9935
211,2017/9/20,11:46:00,41-29.19N,141-34.94E,177,19.4014,33.9981
212,2017/9/20,11:47:00,41-28.78N,141-34.96E,178,19.4175,34.0008
213,2017/9/20,11:48:00,41-28.35N,141-34.97E,178,19.4325,34.0004
214,2017/9/20,11:49:00,41-27.92N,141-34.98E,179,19.4725,34.002
215,2017/9/20,11:50:00,41-27.51N,141-34.98E,179,19.4866,34.0013
216,2017/9/20,11:51:00,41-27.08N,141-34.99E,179,19.5005,33.9996
217,2017/9/20,11:52:00,41-26.66N,141-34.99E,179,19.5677,34.002
218,2017/9/20,11:53:00,41-26.25N,141-35.00E,179,19.6722,33.9994
219,2017/9/20,11:54:00,41-25.82N,141-35.02E,177,19.7142,33.9921
220,2017/9/20,11:55:00,41-25.40N,141-35.07E,174,19.8398,33.9829
221,2017/9/20,11:56:00,41-24.99N,141-35.13E,173,20.0014,33.9761
222,2017/9/20,11:57:00,41-24.57N,141-35.20E,172,20.0724,33.9581
223,2017/9/20,11:58:00,41-24.15N,141-35.27E,172,20.2153,33.9444
224,2017/9/20,11:59:00,41-23.74N,141-35.35E,170,20.287,33.9347
225,2017/9/20,12:00:00,41-23.32N,141-35.46E,168,20.3679,33.9186
226,2017/9/20,12:01:00,41-22.92N,141-35.58E,166,20.3075,33.9072
227,2017/9/20,12:02:00,41-22.52N,141-35.71E,166,20.3369,33.9092
228,2017/9/20,12:03:00,41-22.11N,141-35.84E,166,20.4355,33.9077
229,2017/9/20,12:04:00,41-21.71N,141-35.96E,166,20.4674,33.8976
230,2017/9/20,12:05:00,41-21.30N,141-36.09E,167,20.4182,33.8926
231,2017/9/20,12:06:00,41-20.89N,141-36.21E,166,20.3384,33.8891
232,2017/9/20,12:07:00,41-20.49N,141-36.33E,167,20.2321,33.8952
233,2017/9/20,12:08:00,41-20.08N,141-36.46E,166,20.0708,33.9053
234,2017/9/20,12:09:00,41-19.68N,141-36.58E,167,19.9704,33.9093
235,2017/9/20,12:10:00,41-19.29N,141-36.71E,166,19.8734,33.9215
236,2017/9/20,12:11:00,41-18.88N,141-36.83E,167,19.88,33.9233
237,2017/9/20,12:12:00,41-18.48N,141-36.96E,166,19.8348,33.9411
238,2017/9/20,12:13:00,41-18.09N,141-37.08E,167,19.8888,33.9411
239,2017/9/20,12:14:00,41-17.68N,141-37.20E,167,19.8568,33.9359
240,2017/9/20,12:15:00,41-17.29N,141-37.32E,166,19.8143,33.9272
241,2017/9/20,12:16:00,41-16.89N,141-37.45E,166,19.737,33.9348
242,2017/9/20,12:17:00,41-16.49N,141-37.58E,167,19.7134,33.9491
243,2017/9/20,12:18:00,41-16.10N,141-37.70E,167,19.6457,33.9452
244,2017/9/20,12:19:00,41-15.71N,141-37.83E,165,19.5265,33.9265
245,2017/9/20,12:20:00,41-15.32N,141-37.97E,164,19.4744,33.9128
246,2017/9/20,12:21:00,41-14.94N,141-38.10E,164,19.554,33.9076
247,2017/9/20,12:22:00,41-14.55N,141-38.24E,164,19.5309,33.9046
248,2017/9/20,12:23:00,41-14.18N,141-38.38E,164,19.3513,33.8937
249,2017/9/20,12:24:00,41-13.81N,141-38.52E,164,19.2141,33.894
250,2017/9/20,12:25:00,41-13.42N,141-38.66E,164,19.1393,33.9113
251,2017/9/20,12:26:00,41-13.05N,141-38.80E,164,19.0786,33.9252
252,2017/9/20,12:27:00,41-12.68N,141-38.94E,164,19.0549,33.9117
253,2017/9/20,12:28:00,41-12.30N,141-39.07E,164,19.0222,33.9268
254,2017/9/20,12:29:00,41-11.93N,141-39.21E,164,18.9751,33.9431
255,2017/9/20,12:30:00,41-11.56N,141-39.35E,164,18.9803,33.9405
256,2017/9/20,12:31:00,41-11.18N,141-39.50E,163,19.0838,33.9377
257,2017/9/20,12:32:00,41-10.82N,141-39.64E,163,19.4187,33.9744
258,2017/9/20,12:33:00,41-10.45N,141-39.78E,164,19.6252,34.0182
259,2017/9/20,12:34:00,41-10.08N,141-39.92E,163,19.6812,34.013
260,2017/9/20,12:35:00,41-09.72N,141-40.06E,163,19.7494,34.0113
261,2017/9/20,12:36:00,41-09.36N,141-40.20E,163,19.7678,34.0134
262,2017/9/20,12:37:00,41-08.99N,141-40.34E,163,19.8147,34.0144
263,2017/9/20,12:38:00,41-08.63N,141-40.48E,163,19.6836,34.0167
264,2017/9/20,12:39:00,41-08.26N,141-40.62E,163,19.391,34.0176
265,2017/9/20,12:40:00,41-07.90N,141-40.76E,164,19.3353,34.0155
266,2017/9/20,12:41:00,41-07.54N,141-40.90E,163,19.3573,34.0173
267,2017/9/20,12:42:00,41-07.17N,141-41.04E,163,19.3611,34.0237
268,2017/9/20,12:43:00,41-06.82N,141-41.18E,163,19.4029,34.026
269,2017/9/20,12:44:00,41-06.46N,141-41.33E,162,19.37,34.0221
270,2017/9/20,12:45:00,41-06.09N,141-41.47E,163,19.3258,34.0151
271,2017/9/20,12:46:00,41-05.74N,141-41.62E,163,19.3275,34.0114
272,2017/9/20,12:47:00,41-05.38N,141-41.76E,162,19.3294,34.0105
273,2017/9/20,12:48:00,41-05.01N,141-41.91E,162,19.3432,34.0095
274,2017/9/20,12:49:00,41-04.67N,141-42.06E,162,19.3714,34.0099
275,2017/9/20,12:50:00,41-04.31N,141-42.21E,162,19.4045,34.0102
276,2017/9/20,12:51:00,41-03.95N,141-42.36E,162,19.4117,34.0108
277,2017/9/20,12:52:00,41-03.60N,141-42.51E,162,19.4489,34.011
278,2017/9/20,12:53:00,41-03.24N,141-42.67E,161,19.4747,34.0103
279,2017/9/20,12:54:00,41-02.87N,141-42.82E,161,19.4916,34.01
280,2017/9/20,12:55:00,41-02.51N,141-42.98E,162,19.4826,34.0089
281,2017/9/20,12:56:00,41-02.14N,141-43.12E,164,19.455,34.0051
282,2017/9/20,12:57:00,41-01.77N,141-43.25E,166,19.4554,33.9988
283,2017/9/20,12:58:00,41-01.40N,141-43.35E,168,19.4661,33.992
284,2017/9/20,12:59:00,41-01.01N,141-43.46E,167,19.4575,33.9835
285,2017/9/20,13:00:00,41-00.64N,141-43.56E,168,19.4436,33.9764
286,2017/9/20,13:01:00,41-00.26N,141-43.66E,169,19.4405,33.9687
287,2017/9/20,13:02:00,40-59.88N,141-43.75E,170,19.4601,33.967
288,2017/9/20,13:03:00,40-59.50N,141-43.83E,170,19.4931,33.9662
289,2017/9/20,13:04:00,40-59.12N,141-43.92E,170,19.5203,33.9643
290,2017/9/20,13:05:00,40-58.74N,141-44.00E,170,19.5506,33.9667
291,2017/9/20,13:06:00,40-58.36N,141-44.08E,170,19.5278,33.9698
292,2017/9/20,13:07:00,40-57.99N,141-44.15E,171,19.5623,33.9752
293,2017/9/20,13:08:00,40-57.60N,141-44.23E,171,19.5945,33.9811
294,2017/9/20,13:09:00,40-57.23N,141-44.31E,171,19.6198,33.9921
295,2017/9/20,13:10:00,40-56.85N,141-44.38E,172,19.6483,33.9937
296,2017/9/20,13:11:00,40-56.47N,141-44.45E,171,19.6733,33.9944
297,2017/9/20,13:12:00,40-56.10N,141-44.52E,171,19.6987,33.9968
298,2017/9/20,13:13:00,40-55.72N,141-44.60E,171,19.6838,33.9968
299,2017/9/20,13:14:00,40-55.34N,141-44.68E,169,19.7092,33.993
300,2017/9/20,13:15:00,40-54.97N,141-44.78E,168,19.7024,33.9948
301,2017/9/20,13:16:00,40-54.59N,141-44.88E,168,19.7203,34.0084
302,2017/9/20,13:17:00,40-54.21N,141-44.98E,169,19.7628,34.0066
303,2017/9/20,13:18:00,40-53.84N,141-45.07E,169,19.7673,34.0039
304,2017/9/20,13:19:00,40-53.45N,141-45.18E,168,19.8179,34.0071
305,2017/9/20,13:20:00,40-53.08N,141-45.28E,167,19.8487,34.0102
306,2017/9/20,13:21:00,40-52.70N,141-45.40E,167,19.8494,34.0095
307,2017/9/20,13:22:00,40-52.33N,141-45.52E,166,19.9066,34.0135
308,2017/9/20,13:23:00,40-51.96N,141-45.63E,166,19.9501,34.0155
309,2017/9/20,13:24:00,40-51.59N,141-45.76E,165,19.8544,34.0149
310,2017/9/20,13:25:00,40-51.21N,141-45.88E,166,19.8305,34.0102
311,2017/9/20,13:26:00,40-50.84N,141-46.00E,166,19.7645,33.9746
312,2017/9/20,13:27:00,40-50.47N,141-46.12E,166,19.6472,33.9535
313,2017/9/20,13:28:00,40-50.09N,141-46.24E,166,19.6249,33.9065
314,2017/9/20,13:29:00,40-49.72N,141-46.36E,166,19.609,33.877
315,2017/9/20,13:30:00,40-49.35N,141-46.48E,166,19.592,33.8662
316,2017/9/20,13:31:00,40-48.96N,141-46.60E,166,19.5523,33.8632
317,2017/9/20,13:32:00,40-48.59N,141-46.72E,166,19.4151,33.8585
318,2017/9/20,13:33:00,40-48.21N,141-46.84E,166,19.3197,33.8305
319,2017/9/20,13:34:00,40-47.83N,141-46.97E,165,19.2431,33.7987
320,2017/9/20,13:35:00,40-47.45N,141-47.09E,165,19.2372,33.7899
321,2017/9/20,13:36:00,40-47.07N,141-47.22E,166,19.3304,33.794
322,2017/9/20,13:37:00,40-46.70N,141-47.34E,165,19.4024,33.8084
323,2017/9/20,13:38:00,40-46.32N,141-47.48E,164,19.4573,33.8174
324,2017/9/20,13:39:00,40-45.94N,141-47.63E,163,19.4969,33.8183
325,2017/9/20,13:40:00,40-45.57N,141-47.77E,163,19.5288,33.8171
326,2017/9/20,13:41:00,40-45.19N,141-47.92E,162,19.5421,33.8135
327,2017/9/20,13:42:00,40-44.82N,141-48.08E,162,19.553,33.805
328,2017/9/20,13:43:00,40-44.45N,141-48.24E,162,19.5649,33.7978
329,2017/9/20,13:44:00,40-44.08N,141-48.40E,162,19.5764,33.7932
330,2017/9/20,13:45:00,40-43.70N,141-48.56E,162,19.581,33.7902
331,2017/9/20,13:46:00,40-43.33N,141-48.71E,162,19.5773,33.7907
332,2017/9/20,13:47:00,40-42.96N,141-48.87E,161,19.5864,33.7908
333,2017/9/20,13:48:00,40-42.58N,141-49.04E,160,19.5918,33.7891
334,2017/9/20,13:49:00,40-42.22N,141-49.21E,159,19.594,33.7888
335,2017/9/20,13:50:00,40-41.84N,141-49.39E,159,19.5956,33.7878
336,2017/9/20,13:51:00,40-41.48N,141-49.57E,159,19.5919,33.7868
337,2017/9/20,13:52:00,40-41.10N,141-49.75E,159,19.5848,33.7857
338,2017/9/20,13:53:00,40-40.73N,141-49.93E,159,19.5804,33.7858
339,2017/9/20,13:54:00,40-40.37N,141-50.11E,159,19.5771,33.7869
340,2017/9/20,13:55:00,40-40.00N,141-50.29E,160,19.5743,33.7891
341,2017/9/20,13:56:00,40-39.62N,141-50.47E,159,19.5768,33.7911
342,2017/9/20,13:57:00,40-39.26N,141-50.64E,159,19.5706,33.7958
343,2017/9/20,13:58:00,40-38.89N,141-50.82E,159,19.5778,33.8001
344,2017/9/20,13:59:00,40-38.51N,141-51.00E,159,19.5912,33.8024
345,2017/9/20,14:00:00,40-38.15N,141-51.17E,160,19.6086,33.8012
346,2017/9/20,14:01:00,40-37.77N,141-51.35E,160,19.6357,33.8012
347,2017/9/20,14:02:00,40-37.40N,141-51.52E,159,19.6521,33.8048
348,2017/9/20,14:03:00,40-37.03N,141-51.69E,160,19.6683,33.8133
349,2017/9/20,14:04:00,40-36.67N,141-51.87E,160,19.6954,33.8191
350,2017/9/20,14:05:00,40-36.30N,141-52.04E,160,19.7179,33.8243
351,2017/9/20,14:06:00,40-35.93N,141-52.22E,160,19.7559,33.8291
352,2017/9/20,14:07:00,40-35.55N,141-52.39E,160,19.7676,33.8307
353,2017/9/20,14:08:00,40-35.19N,141-52.57E,160,19.7745,33.8405
354,2017/9/20,14:09:00,40-34.82N,141-52.74E,160,19.7827,33.8491
355,2017/9/20,14:10:00,40-34.44N,141-52.92E,160,19.6894,33.8613
356,2017/9/20,14:11:00,40-34.07N,141-53.09E,160,19.6414,33.8779
357,2017/9/20,14:12:00,40-33.70N,141-53.26E,160,19.6405,33.8876
358,2017/9/20,14:13:00,40-33.32N,141-53.43E,160,19.6556,33.8895
359,2017/9/20,14:14:00,40-32.95N,141-53.60E,160,19.6574,33.8901
360,2017/9/20,14:15:00,40-32.58N,141-53.78E,160,19.6432,33.8891
361,2017/9/20,14:16:00,40-32.19N,141-53.96E,160,19.64,33.8866
362,2017/9/20,14:17:00,40-31.82N,141-54.13E,160,19.6147,33.8818
363,2017/9/20,14:18:00,40-31.44N,141-54.30E,160,19.5797,33.8733
364,2017/9/20,14:19:00,40-31.07N,141-54.47E,160,19.5298,33.8585
365,2017/9/20,14:20:00,40-30.70N,141-54.64E,160,19.4395,33.8444
366,2017/9/20,14:21:00,40-30.31N,141-54.82E,160,19.3893,33.8171
367,2017/9/20,14:22:00,40-29.95N,141-54.99E,160,19.3597,33.7973
368,2017/9/20,14:23:00,40-29.57N,141-55.17E,160,19.2964,33.7897
369,2017/9/20,14:24:00,40-29.19N,141-55.35E,160,19.3001,33.7647
370,2017/9/20,14:25:00,40-28.82N,141-55.52E,160,19.282,33.7618
371,2017/9/20,14:26:00,40-28.44N,141-55.68E,162,19.2421,33.7716
372,2017/9/20,14:27:00,40-28.05N,141-55.84E,162,19.2122,33.759
373,2017/9/20,14:28:00,40-27.67N,141-55.99E,162,19.2,33.7541
374,2017/9/20,14:29:00,40-27.29N,141-56.15E,162,19.1884,33.7494
375,2017/9/20,14:30:00,40-26.90N,141-56.31E,162,19.1863,33.75
376,2017/9/20,14:31:00,40-26.52N,141-56.46E,162,19.1826,33.7519
377,2017/9/20,14:32:00,40-26.13N,141-56.62E,162,19.1758,33.7483
378,2017/9/20,14:33:00,40-25.75N,141-56.78E,162,19.1612,33.7471
379,2017/9/20,14:34:00,40-25.37N,141-56.94E,162,19.0991,33.7446
380,2017/9/20,14:35:00,40-24.99N,141-57.09E,162,19.0952,33.7367
381,2017/9/20,14:36:00,40-24.59N,141-57.25E,163,19.0691,33.7289
382,2017/9/20,14:37:00,40-24.22N,141-57.41E,162,19.0962,33.724
383,2017/9/20,14:38:00,40-23.83N,141-57.56E,162,19.0298,33.7248
384,2017/9/20,14:39:00,40-23.45N,141-57.72E,162,19.0311,33.7238
385,2017/9/20,14:40:00,40-23.07N,141-57.87E,162,19.0367,33.7176
386,2017/9/20,14:41:00,40-22.68N,141-58.03E,162,19.0865,33.7154
387,2017/9/20,14:42:00,40-22.31N,141-58.18E,163,19.1635,33.7167
388,2017/9/20,14:43:00,40-21.92N,141-58.33E,164,19.2037,33.724
389,2017/9/20,14:44:00,40-21.53N,141-58.47E,164,19.1971,33.7336
390,2017/9/20,14:45:00,40-21.15N,141-58.61E,164,19.169,33.7375
391,2017/9/20,14:46:00,40-20.76N,141-58.75E,165,19.1743,33.7304
392,2017/9/20,14:47:00,40-20.37N,141-58.87E,166,19.2151,33.726
393,2017/9/20,14:48:00,40-19.98N,141-58.98E,167,19.2342,33.7266
394,2017/9/20,14:49:00,40-19.59N,141-59.10E,167,19.248,33.7263
395,2017/9/20,14:50:00,40-19.19N,141-59.22E,167,19.2569,33.7265
396,2017/9/20,14:51:00,40-18.81N,141-59.33E,167,19.2144,33.7248
397,2017/9/20,14:52:00,40-18.41N,141-59.45E,167,19.2287,33.7194
398,2017/9/20,14:53:00,40-18.02N,141-59.56E,167,19.2628,33.7136
399,2017/9/20,14:54:00,40-17.63N,141-59.68E,167,19.3083,33.7191
400,2017/9/20,14:55:00,40-17.23N,141-59.80E,167,19.2966,33.7233
401,2017/9/20,14:56:00,40-16.85N,141-59.91E,167,19.2617,33.7255
402,2017/9/20,14:57:00,40-16.45N,142-00.03E,167,19.2485,33.7175
403,2017/9/20,14:58:00,40-16.06N,142-00.15E,167,19.226,33.7081
404,2017/9/20,14:59:00,40-15.67N,142-00.26E,167,19.1577,33.7028
405,2017/9/20,15:00:00,40-15.28N,142-00.37E,167,19.1652,33.6934
406,2017/9/20,15:01:00,40-14.88N,142-00.49E,167,19.2757,33.6803
407,2017/9/20,15:02:00,40-14.49N,142-00.60E,167,19.2595,33.6898
408,2017/9/20,15:03:00,40-14.09N,142-00.72E,167,19.1941,33.6937
409,2017/9/20,15:04:00,40-13.69N,142-00.83E,167,19.1574,33.6878